Flag for Switzerland Weather past 2 weeks in Baar, Zug, Switzerland

Now
60 °F

Cool.


Feels Like: 60 °F
Forecast: 47 / 67 °F
Wind: 6 mph from Southwest

Location: Zurich Town / Ville.

Current Time: Aug 23, 2014 at 6:18:33 PM

Latest Report: Aug 23, 2014 at 5:00 PM


Visibility: N/A

Pressure: 30.00 "Hg

Humidity: 69%

Dew point: 50 °F

Location of BaarLocation

Historic Weather in Baar — Graph

°F

Baar temperature yesterday

Maximum temperature yesterday: 69 °F (at 5:00 PM)
Minimum temperature yesterday: 51 °F (at 6:00 AM)
Average temperature yesterday: 59 °F

Past Weeks' High & Low Weather Summary

 TemperatureHumidityPressure
High80 °F (Aug 8, 6:00 PM)98% (Aug 10, 9:00 AM)30.22 "Hg (Aug 10, 9:00 AM)
Low49 °F (Aug 17, 7:00 AM)42% (Aug 21, 4:00 PM)29.68 "Hg (Aug 13, 10:00 AM)
Average61 °F75%29.97 "Hg
* Reported Aug 8 5:00 PM — Aug 23 5:00 PM, Baar, Weather by CustomWeather, © 2014

Note: Actual official high and low records may vary slightly from our data, if they occured in-between our weather recording intervals... More about our weather records

Advertising

Baar weather history for previous 24 hours

 ConditionsComfort  
Time TempWeatherWind HumidityBarometerVisibility
5:00 PM
Aug 23
60 °FCool.6 mph69%30.00 "HgN/A
4:00 PM59 °FCool.2 mph67%30.01 "HgN/A
3:00 PM60 °FCool.6 mph66%30.01 "HgN/A
2:00 PM60 °FOvercast.5 mph64%30.01 "HgN/A
1:00 PM60 °FCool.5 mph65%30.02 "HgN/A
12:00 PM58 °FCool.6 mph67%30.03 "HgN/A
11:00 AM56 °FCool.2 mph74%30.03 "HgN/A
10:00 AM57 °FCool.3 mph69%30.02 "HgN/A
9:00 AM56 °FCool.1 mph71%30.02 "HgN/A
8:00 AM55 °FPartly sunny.1 mph80%30.02 "HgN/A
7:00 AM53 °FCool.2 mph85%30.01 "HgN/A
6:00 AM52 °FCool.No wind90%30.00 "HgN/A
5:00 AM53 °FCool.No wind85%30.00 "HgN/A
4:00 AM54 °FCool.1 mph78%30.01 "HgN/A
3:00 AM56 °FCool.1 mph74%30.01 "HgN/A
2:00 AM56 °FCool.1 mph70%30.02 "HgN/A
1:00 AM57 °FCool.No wind73%30.02 "HgN/A
12:00 AM57 °FCool.1 mph71%30.02 "HgN/A
11:00 PM
Aug 22
59 °FCool.2 mph63%30.01 "HgN/A
10:00 PM59 °FCool.2 mph61%30.01 "HgN/A
9:00 PM61 °FRefreshingly cool.3 mph57%29.98 "HgN/A
8:00 PM63 °FScattered clouds.5 mph52%29.96 "HgN/A
7:00 PM67 °FMild.6 mph47%29.93 "HgN/A
6:00 PM69 °FMild.6 mph47%29.92 "HgN/A
Weather by CustomWeather, © 2014

See weather overviewHow to use our weather pages